Location: Lombard
(41.8800°N, 88.0080°W)
Time: 04:13:32
(UTC-06:00)

Courier 1B Rocket - Visible Passes

Search period start: 28 January 2023 00:00
Search period end: 07 February 2023 00:00
Orbit: 920 x 1202 km, 28.3° (Epoch: 27 January)

Date Brightness Start Highest point End Pass type
(mag) Time Alt. Az. Time Alt. Az. Time Alt. Az.
28 Jan 6.5 19:07:41 10° SW 19:12:15 21° SSE 19:13:23 20° SSE visible
28 Jan 7.6 20:59:38 10° SW 20:59:45 10° SW 20:59:45 10° SW visible
29 Jan 6.8 18:07:35 10° SSW 18:11:30 17° SSE 18:15:31 10° SE visible
29 Jan 6.6 19:58:56 10° SW 20:02:31 22° SSW 20:02:31 22° SSW visible
30 Jan 6.5 18:58:23 10° SW 19:03:09 23° S 19:05:17 19° SSE visible
30 Jan 7.4 20:50:50 10° WSW 20:51:39 13° SW 20:51:39 13° SW visible
31 Jan 6.7 17:57:59 10° SW 18:02:24 20° SSE 18:06:53 10° ESE visible
31 Jan 6.5 19:50:00 10° SW 19:54:25 23° S 19:54:25 23° S visible
01 Feb 6.5 18:49:16 10° SW 18:54:04 23° S 18:57:12 16° SE visible
01 Feb 7.2 20:42:14 10° SW 20:43:34 14° SW 20:43:34 14° SW visible
02 Feb 6.6 17:48:39 10° SW 17:53:19 22° S 17:58:02 10° SE visible
02 Feb 6.5 19:41:12 10° SW 19:45:47 21° S 19:46:22 21° S visible
03 Feb 6.6 18:40:18 10° SW 18:45:01 23° S 18:49:13 12° SE visible
03 Feb 7.2 20:33:59 10° SW 20:35:35 13° SW 20:35:35 13° SW visible
04 Feb 6.7 17:39:30 10° SW 17:44:15 23° S 17:49:01 10° SE visible
04 Feb 6.8 19:32:37 10° SW 19:36:42 18° SSW 19:38:27 16° S visible
05 Feb 6.8 18:31:29 10° SW 18:35:57 21° S 18:40:27 10° SE visible
05 Feb 7.3 20:26:42 10° SW 20:27:46 11° SSW 20:27:46 11° SSW visible
06 Feb 7.1 19:24:24 10° SW 19:27:35 14° SSW 19:30:44 10° SSE visible
